Location: Notre Dame Regional High School Observatory
(37.3056°N, 89.6097°W)
Time: 18:21:31
(UTC-05:00)

Okean-O - Visible Passes

Search period start: 03 August 2015 00:00
Search period end: 13 August 2015 00:00
Orbit: 640 x 643 km, 98.1° (Epoch: 02 August)

Date Brightness Start Highest point End Pass type
(mag) Time Alt. Az. Time Alt. Az. Time Alt. Az.
03 Aug 4.5 04:01:15 10° NE 04:05:00 27° E 04:08:46 10° SSE visible
04 Aug 3.4 04:24:43 10° NNE 04:29:02 50° E 04:33:05 12° S visible
05 Aug 2.6 04:48:31 10° NNE 04:52:58 86° WNW 04:57:13 11° SSW visible
06 Aug 5.3 03:37:42 10° ENE 03:40:00 14° E 03:42:31 10° SE visible
06 Aug 3.0 05:12:36 10° N 05:16:51 45° WNW 05:21:03 10° SW visible
07 Aug 4.5 04:00:28 10° NE 04:04:10 26° E 04:07:54 10° SSE visible
07 Aug 3.8 05:36:59 10° NNW 05:40:39 25° WNW 05:44:13 10° SW visible
08 Aug 3.4 04:23:55 10° NNE 04:28:13 49° E 04:32:02 13° S visible
09 Aug 2.6 04:47:42 10° NNE 04:52:10 88° WNW 04:56:11 13° SSW visible
10 Aug 5.3 03:36:58 10° ENE 03:39:10 14° E 03:41:36 10° SE visible
10 Aug 3.0 05:11:46 10° N 05:16:02 46° WNW 05:20:16 10° SW visible
11 Aug 4.6 03:59:41 10° NE 04:03:20 25° E 04:06:52 11° SSE visible
11 Aug 3.8 05:36:07 10° NNW 05:39:50 26° WNW 05:43:27 10° SW visible
12 Aug 3.5 04:23:06 10° NNE 04:27:23 47° E 04:31:00 14° S visible
